GW0020 Weather Reports


time (UTC)temp
C
wind
direction
speed
KPH
gust
KPH
rain 1hr
cm
rain 24hr
cm
rain mn
cm
humidity
%
barometer
mb
20260507001609 15 352 1.6 8.0 0.00 0.00 0.00 80 1013.7
20260507000051 16 13 3.2 8.0 0.00 0.00 0.00 80 1013.7
20260506234554 16 328 4.8 14.5 0.00 0.00 0.00 79 1013.6
20260506233055 16 313 3.2 9.7 0.00 0.00 0.00 80 1013.5
20260506231605 16 30 3.2 11.3 0.00 0.00 0.00 80 1013.7
20260506230056 16 333 1.6 8.0 0.00 0.00 0.00 80 1013.1
20260506224547 16 7 3.2 9.7 0.00 0.00 0.00 81 1013.4
20260506223048 15 0 1.6 9.7 0.00 0.00 0.00 81 1013.5
20260506221605 15 311 3.2 17.7 0.00 0.00 0.00 81 1013.5
20260506220047 15 354 3.2 12.9 0.00 0.00 0.00 82 1013.5
20260506214555 15 321 4.8 16.1 0.00 0.00 0.00 81 1013.3
20260506213102 15 16 6.4 16.1 0.00 0.00 0.00 81 1013.3
20260506211551 15 330 4.8 12.9 0.00 0.00 0.00 81 1013.8
20260506210057 15 9 4.8 14.5 0.00 0.00 0.00 81 1013.8
20260506204553 15 26 6.4 16.1 0.00 0.00 0.00 80 1013.8
20260506203058 15 340 6.4 16.1 0.00 0.00 0.00 80 1014.0
20260506201556 15 346 4.8 17.7 0.00 0.00 0.00 80 1013.5
20260506200125 16 57 3.2 16.1 0.00 0.00 0.00 79 1013.6
20260506194554 16 308 4.8 12.9 0.00 0.00 0.00 79 1013.7
20260506193051 17 311 6.4 17.7 0.00 0.00 0.00 79 1013.7
20260506191549 17 49 6.4 16.1 0.00 0.00 0.00 78 1013.7
20260506190053 17 347 3.2 9.7 0.00 0.00 0.00 78 1013.8
20260506184550 18 19 8.0 19.3 0.00 0.00 0.00 79 1013.3
20260506183053 20 11 8.0 22.5 0.00 0.00 0.00 75 1013.4
20260506181554 21 339 3.2 12.9 0.00 0.00 0.00 75 1013.2
20260506180053 21 51 4.8 12.9 0.00 0.00 0.00 76 1013.1
20260506174555 21 13 1.6 9.7 0.00 0.00 0.00 75 1012.9
20260506173058 20 34 1.6 11.3 0.00 0.00 0.00 76 1012.6
20260506171557 20 0 0.0 8.0 0.00 0.00 0.00 77 1012.6
20260506170057 18 40 0.0 8.0 0.00 0.00 0.00 79 1012.5
20260506164605 18 353 0.0 9.7 0.00 0.00 0.00 80 1012.9
20260506163101 17 27 1.6 11.3 0.00 0.00 0.00 85 1013.2
20260506161554 15 328 0.0 11.3 0.00 0.00 0.00 88 1013.5
20260506160057 15 49 1.6 24.1 0.00 0.00 0.00 88 1014.4
20260506154555 15 14 6.4 20.9 0.00 0.00 0.00 88 1014.2
20260506153043 16 313 8.0 22.5 0.00 0.00 0.00 87 1014.3
20260506151554 17 330 6.4 16.1 0.00 0.00 0.00 88 1014.1
20260506144548 17 52 6.4 14.5 0.00 0.00 0.00 87 1012.5
20260506143050 18 41 9.7 17.7 0.00 0.00 0.00 86 1012.2
20260506141550 20 359 6.4 12.9 0.00 0.00 0.00 86 1011.6
20260506140048 21 24 6.4 16.1 0.00 0.00 0.00 83 1011.3
20260506134551 23 0 0.0 1.6 0.00 0.00 0.00 90 1011.2
20260506133101 22 0 0.0 1.6 0.00 0.00 0.00 91 1010.9
20260506131616 22 15 0.0 3.2 0.00 0.00 0.00 91 1011.0
20260506130049 22 0 0.0 1.6 0.00 0.00 0.00 92 1010.4
20260506124552 22 0 0.0 1.6 0.00 0.00 0.00 92 1010.4
20260506123051 22 0 0.0 1.6 0.00 0.00 0.00 92 1010.3
20260506121602 22 0 0.0 0.0 0.00 0.00 0.00 91 1010.0
20260506114547 22 0 0.0 0.0 0.00 0.00 0.00 90 1009.8
20260506113048 22 0 0.0 0.0 0.00 0.00 0.00 89 1009.9
20260506111549 22 0 0.0 0.0 0.00 0.00 0.00 89 1010.1
20260506110058 22 0 0.0 1.6 0.00 0.00 0.00 89 1010.2
20260506104558 22 0 0.0 1.6 0.00 0.00 0.00 89 1010.2
20260506103049 22 0 0.0 1.6 0.00 0.00 0.00 89 1009.9
20260506101553 23 136 0.0 1.6 0.00 0.00 0.00 88 1009.6
20260506100058 23 142 0.0 4.8 0.00 0.00 0.00 87 1009.5
20260506094556 23 0 0.0 1.6 0.00 0.00 0.00 87 1009.4
20260506093051 23 0 0.0 1.6 0.00 0.00 0.00 86 1009.3
20260506091548 23 0 0.0 1.6 0.00 0.00 0.00 86 1009.1
20260506090044 23 143 0.0 3.2 0.00 0.00 0.00 86 1009.0
20260506084616 23 155 0.0 4.8 0.00 0.00 0.00 86 1008.7
20260506083052 23 133 1.6 8.0 0.00 0.00 0.00 86 1008.9
20260506081556 23 169 0.0 4.8 0.00 0.00 0.00 85 1008.8
20260506073046 23 232 3.2 12.9 0.00 0.00 0.00 86 1009.0
20260506071544 23 198 1.6 8.0 0.00 0.00 0.00 86 1009.2
20260506061548 23 158 3.2 9.7 0.00 0.00 0.00 85 1009.0
20260506044547 23 131 1.6 4.8 0.00 0.00 0.00 86 1009.1
20260506043053 23 151 1.6 6.4 0.00 0.00 0.00 86 1009.0
20260506041602 23 0 0.0 4.8 0.00 0.00 0.00 85 1008.9
20260506040050 23 0 0.0 4.8 0.00 0.00 0.00 85 1008.9
20260506034544 24 141 1.6 4.8 0.00 0.00 0.00 84 1008.6
20260506033048 24 143 1.6 4.8 0.00 0.00 0.00 83 1008.4
20260506031551 24 131 0.0 4.8 0.00 0.00 0.00 82 1008.3
20260506030053 24 162 1.6 4.8 0.00 0.00 0.00 81 1008.0
20260506024552 24 0 0.0 0.0 0.00 0.00 0.00 81 1008.0
20260506023106 25 0 0.0 3.2 0.00 0.00 0.00 80 1007.7
20260506021609 25 134 0.0 3.2 0.00 0.00 0.00 80 1007.4
20260506020054 25 0 0.0 1.6 0.00 0.00 0.00 79 1007.3
20260506014551 25 172 0.0 3.2 0.00 0.00 0.00 77 1006.9
20260506013100 25 133 0.0 3.2 0.00 0.00 0.00 76 1006.9
20260506011615 26 135 0.0 3.2 0.00 0.00 0.00 74 1006.8
20260506010057 26 0 0.0 6.4 0.00 0.00 0.00 74 1006.8
20260506004553 27 156 0.0 4.8 0.00 0.00 0.00 73 1006.8
20260506003056 27 0 0.0 3.2 0.00 0.00 0.00 72 1006.8